Wind_Speed
16 16 16 16 16 15 14 13 13 12 11 11 11 11 11 11 10 10 10 10 10 10 11 11 12 12 12 12 13 12 13 13 14 14 13 13 13 13 14 14 14 15 16
17 16 15 15 15 15 15 14 14 13 12 12 12 11 11 11 11 11 10 10 10 11 11 12 12 13 13 13 13 13 13 13 14 14 14 14 14 14 14 15 15 16 16
16 15 15 14 14 14 14 14 14 13 12 12 11 11 11 11 11 11 11 10 11 11 12 12 12 13 13 14 14 14 14 15 15 15 14 14 14 15 15 15 16 17 18
16 16 15 14 14 14 15 14 14 14 13 13 12 12 12 12 12 12 11 11 12 13 13 13 13 14 14 14 14 14 15 15 15 15 15 15 15 16 16 17 18 19 20
17 16 16 15 15 14 14 14 14 14 14 14 13 13 13 13 13 12 12 12 12 13 13 13 14 14 14 14 14 14 15 15 16 16 17 17 17 18 18 19 20 21 22
17 17 17 16 15 15 15 14 14 14 14 14 14 14 14 14 14 14 14 13 13 13 13 14 14 14 14 14 14 15 15 16 17 17 18 19 20 20 21 22 23 23 24
17 17 17 17 16 16 16 15 15 14 14 14 14 14 15 15 14 14 14 13 13 14 14 14 14 14 14 14 15 15 16 16 17 18 19 20 21 22 23 24 25 25 26
18 18 18 17 17 17 16 15 15 15 14 14 14 14 14 15 14 14 15 14 14 14 15 15 15 14 15 16 17 17 18 18 19 20 21 22 23 24 25 26 26 27 28
18 18 18 18 18 17 16 16 15 15 15 15 14 15 15 15 15 14 14 14 14 15 15 15 16 16 16 17 18 19 19 20 21 22 23 24 26 27 27 28 29 29 30
18 18 18 18 18 18 17 17 16 16 16 16 16 16 16 16 16 16 16 16 16 16 16 16 16 17 18 18 19 20 21 22 23 24 25 27 27 28 29 30 31 31 31
18 18 18 17 17 17 17 17 17 17 17 17 17 17 17 17 17 17 16 16 17 16 17 17 18 18 19 20 21 22 23 23 24 26 27 28 29 30 31 32 33 33 34
18 18 17 16 16 16 17 17 17 17 17 17 17 17 17 16 16 17 17 17 17 17 18 18 19 19 20 21 22 23 23 25 26 27 28 29 30 31 31 32 32 33 35
18 18 18 17 17 17 17 17 17 17 17 17 17 17 17 17 17 17 17 17 18 19 19 19 20 21 22 23 24 24 25 26 27 28 30 31 31 31 32 33 33 34 35
17 17 18 18 18 18 17 17 17 17 17 17 17 17 17 18 18 18 18 19 19 20 21 21 22 23 24 24 25 25 26 27 28 29 30 31 32 32 33 34 35 36 37
17 17 17 17 17 18 18 18 18 18 18 17 17 18 18 19 19 20 20 20 21 22 22 23 24 24 25 25 26 27 27 28 29 31 31 32 33 34 34 36 37 38 39
17 17 17 17 17 18 18 19 19 19 19 19 18 19 19 20 21 21 22 22 23 23 24 24 25 25 26 26 27 28 29 30 31 32 32 33 34 35 36 37 38 39 40
17 17 17 18 18 18 19 19 20 20 20 20 20 20 21 21 22 23 23 24 24 25 26 26 27 27 28 28 28 29 30 31 32 32 33 34 36 37 38 39 40 40 40
18 18 18 18 19 19 19 20 20 20 21 22 22 22 23 23 23 24 25 25 26 27 27 28 28 29 29 29 30 31 31 32 33 34 35 36 37 39 40 41 41 40 41
19 19 19 19 20 20 20 21 21 22 22 23 23 24 24 24 24 25 26 26 27 27 28 29 29 30 30 31 32 33 33 34 35 36 37 38 39 40 41 41 41 42 42
19 20 20 20 20 21 21 22 23 23 23 24 24 24 24 24 25 25 26 26 27 27 28 29 29 30 31 32 33 34 35 36 37 38 39 39 40 41 41 41 42 43 43
21 21 21 21 21 22 23 23 24 24 24 24 24 24 25 25 25 26 26 27 28 29 29 30 31 32 33 33 34 35 36 37 37 38 39 40 41 41 42 42 43 43 44
21 22 22 22 22 22 23 23 24 25 25 25 25 24 25 26 27 27 27 28 30 30 31 32 32 33 34 35 36 36 37 37 38 39 40 41 41 42 42 43 43 44 44
22 22 23 23 23 23 24 23 24 24 25 25 25 26 26 26 27 28 28 29 30 31 32 32 33 34 35 36 37 37 38 38 39 40 41 42 42 42 43 43 43 44 44
23 23 23 23 23 24 24 24 24 25 25 25 26 26 26 27 28 29 30 30 31 31 32 33 34 35 36 37 37 38 39 39 40 41 42 42 43 43 43 44 44 44 44
24 24 24 24 24 24 24 25 25 25 26 26 26 27 28 28 29 30 31 31 32 33 33 34 35 35 36 37 38 39 40 40 41 42 43 43 43 44 44 45 45 45 44
24 24 24 24 24 24 25 25 26 26 27 26 27 27 28 29 30 30 31 32 33 33 34 35 35 36 37 38 39 40 41 41 42 43 43 43 43 44 45 45 45 44 44
Wind_Direction
244 246 245 244 243 244 246 247 248 248 252 250 249 254 260 263 265 270 274 280 283 287 290 293 296 298 298 299 300 300 302 304 304 304 304 304 304 301 300 297 295 294 296
246 246 244 245 243 243 244 246 245 247 250 252 251 254 261 265 265 267 273 280 284 289 292 294 298 299 298 299 301 301 301 303 302 302 302 302 302 300 298 297 296 298 297
245 245 242 243 242 240 241 244 245 247 250 252 252 255 260 265 270 272 272 279 284 288 291 294 297 298 299 302 302 301 302 302 302 301 301 299 299 297 297 298 297 296 295
243 242 240 240 242 241 241 242 243 245 247 250 252 256 261 265 270 275 272 276 282 285 290 292 295 297 300 301 301 301 304 304 303 303 303 302 298 296 297 298 297 296 296
242 240 238 238 240 241 243 243 243 244 246 249 252 256 261 264 268 272 274 277 282 285 287 291 294 297 300 301 302 302 304 304 303 304 304 304 302 300 301 302 300 299 298
239 238 238 238 240 241 242 244 245 246 247 250 254 257 259 261 266 272 275 279 283 289 291 290 294 296 299 301 302 303 304 304 302 303 304 304 303 301 301 301 301 300 298
238 238 239 240 241 242 243 243 244 248 250 253 256 257 257 261 267 271 277 280 284 289 291 294 297 296 295 299 302 303 305 306 304 305 305 305 305 303 302 302 301 300 299
238 237 237 240 242 244 242 241 243 248 251 253 256 257 259 262 266 270 274 282 283 287 291 292 294 295 295 295 297 299 301 303 304 305 305 305 304 304 304 303 302 302 300
238 238 239 240 243 243 242 243 245 248 252 253 255 257 260 262 266 271 275 280 284 287 291 291 293 292 295 296 295 296 298 301 303 304 305 305 304 303 303 302 301 301 301
237 238 239 241 241 240 241 242 245 248 252 256 255 257 260 261 264 270 272 278 282 286 290 291 293 292 292 294 296 297 298 299 301 302 303 304 303 303 303 302 301 301 300
234 235 238 240 241 240 241 242 246 249 253 257 257 258 261 262 263 267 271 276 280 285 290 291 292 293 293 294 295 298 298 298 299 301 302 303 303 303 303 302 301 301 300
233 236 238 239 241 241 242 243 245 248 252 256 258 259 261 262 264 269 273 277 280 286 290 291 293 293 294 295 296 298 299 300 301 303 304 304 304 305 304 304 302 301 301
236 237 239 242 243 243 246 246 248 252 254 258 259 262 264 266 269 271 273 277 281 286 289 291 293 294 294 295 296 298 299 301 304 305 305 306 307 306 306 305 304 303 303
240 240 241 243 244 245 248 250 252 254 256 260 259 261 262 264 268 271 275 278 282 284 287 289 291 294 294 295 296 298 300 302 304 306 308 308 309 308 308 307 307 306 305
242 241 242 244 245 247 250 252 254 256 257 258 259 261 262 263 267 271 276 280 282 285 287 288 291 294 295 295 297 299 301 303 305 306 307 308 309 308 308 308 308 308 306
247 244 244 247 251 252 252 253 254 255 256 257 259 262 265 268 269 272 277 281 284 287 291 291 292 294 296 296 297 300 302 304 305 306 307 308 309 309 308 307 307 308 308
249 249 250 251 254 256 256 257 257 257 258 260 262 264 266 272 273 275 278 281 283 287 291 292 292 293 296 296 297 299 301 303 305 305 306 307 308 309 309 308 308 307 307
249 251 253 255 256 257 256 257 257 258 260 263 264 266 268 271 275 277 279 282 284 286 290 292 292 293 295 297 297 299 301 302 304 305 307 308 309 309 309 309 309 307 307
253 254 256 259 260 258 256 258 259 260 263 264 266 268 270 273 277 278 280 283 286 288 290 292 292 293 294 297 298 298 299 301 302 304 306 307 309 309 309 308 308 308 308
254 256 257 260 261 259 258 258 260 261 263 265 268 270 272 274 277 280 282 284 286 289 291 292 293 294 296 297 298 298 299 301 302 303 305 306 307 308 308 307 307 308 308
256 257 259 261 261 261 260 260 261 262 265 268 270 273 274 275 278 280 283 284 285 288 290 293 294 295 296 297 298 299 299 300 302 304 305 306 307 308 308 308 308 308 309
257 258 259 260 261 263 263 262 263 264 267 269 270 272 273 276 279 281 283 285 286 288 290 293 294 295 297 298 300 301 301 301 302 304 305 306 307 308 308 308 309 310 310
258 258 259 261 262 263 264 264 266 268 269 269 270 273 275 278 280 282 284 286 288 290 291 293 295 296 297 299 300 301 301 301 302 304 305 306 307 307 307 308 309 310 310
259 260 262 263 264 266 266 266 268 269 270 271 274 275 277 280 282 284 285 287 288 289 291 293 294 296 298 299 301 302 301 301 303 304 305 306 306 306 307 308 309 310 310
261 262 263 265 268 269 269 269 270 271 272 274 275 277 278 280 282 285 287 289 290 290 291 293 295 297 299 300 301 302 302 302 303 304 305 306 306 306 307 307 308 309 310
263 264 265 267 269 271 272 273 273 273 274 276 278 279 280 282 284 287 288 290 291 292 292 293 295 297 299 301 301 302 303 302 303 305 305 306 306 306 307 307 308 309 309
Height
5853 5854 5855 5857 5858 5860 5861 5862 5863 5864 5864 5865 5865 5866 5866 5866 5866 5866 5865 5865 5864 5863 5862 5860 5859 5858 5856 5855 5853 5851 5850 5848 5845 5844 5841 5839 5836 5834 5832 5831 5830 5829 5827
5849 5850 5852 5853 5855 5856 5857 5859 5860 5861 5861 5862 5862 5863 5863 5863 5863 5863 5863 5862 5861 5860 5859 5858 5856 5855 5853 5852 5850 5848 5847 5844 5843 5840 5838 5836 5834 5832 5830 5829 5827 5825 5823
5845 5847 5848 5850 5851 5852 5853 5855 5856 5857 5858 5859 5859 5860 5860 5860 5860 5860 5860 5859 5858 5857 5856 5855 5854 5852 5850 5849 5847 5845 5843 5841 5839 5837 5835 5833 5831 5829 5828 5826 5824 5822 5820
5841 5843 5845 5846 5848 5849 5850 5851 5852 5853 5855 5855 5856 5857 5857 5857 5857 5857 5856 5856 5855 5854 5853 5852 5850 5849 5847 5845 5844 5842 5840 5838 5836 5834 5832 5830 5828 5826 5824 5822 5820 5818 5816
5838 5839 5841 5843 5844 5845 5846 5847 5848 5850 5851 5852 5853 5853 5854 5854 5854 5854 5853 5853 5852 5850 5849 5848 5847 5845 5843 5842 5840 5838 5837 5835 5833 5831 5829 5827 5824 5822 5820 5818 5816 5813 5811
5834 5836 5837 5839 5840 5841 5843 5844 5845 5846 5847 5848 5849 5850 5850 5850 5851 5850 5850 5849 5848 5847 5845 5844 5843 5842 5840 5838 5837 5835 5833 5831 5829 5827 5825 5823 5820 5818 5816 5813 5811 5808 5806
5830 5831 5833 5834 5836 5837 5839 5840 5841 5842 5843 5845 5845 5845 5846 5846 5846 5846 5846 5845 5844 5843 5842 5841 5839 5837 5836 5835 5833 5831 5829 5827 5825 5823 5821 5818 5816 5813 5811 5808 5805 5802 5799
5825 5827 5829 5830 5832 5833 5835 5836 5837 5838 5839 5840 5841 5841 5842 5842 5842 5842 5842 5841 5840 5839 5838 5836 5835 5833 5832 5830 5829 5827 5825 5823 5821 5819 5816 5813 5810 5807 5805 5802 5798 5795 5792
5821 5823 5824 5826 5827 5829 5830 5832 5833 5834 5835 5836 5837 5837 5838 5838 5838 5838 5837 5836 5836 5835 5834 5832 5830 5829 5827 5826 5824 5822 5820 5818 5816 5813 5810 5807 5804 5801 5798 5795 5791 5788 5785
5816 5818 5820 5821 5823 5824 5826 5827 5829 5830 5831 5832 5832 5833 5833 5833 5833 5833 5833 5832 5831 5830 5829 5828 5826 5824 5823 5821 5819 5817 5815 5813 5810 5807 5804 5801 5798 5794 5791 5787 5784 5780 5776
5812 5814 5815 5817 5818 5819 5821 5822 5824 5825 5826 5827 5827 5828 5828 5828 5828 5828 5828 5828 5827 5825 5824 5823 5821 5819 5818 5816 5814 5811 5809 5806 5803 5801 5797 5794 5790 5787 5783 5779 5775 5771 5767
5808 5809 5811 5812 5814 5815 5816 5818 5819 5820 5821 5822 5823 5823 5823 5823 5823 5823 5823 5823 5822 5821 5819 5818 5816 5814 5812 5810 5808 5806 5803 5800 5797 5794 5790 5787 5783 5779 5775 5770 5766 5762 5758
5804 5805 5807 5808 5809 5810 5812 5813 5815 5816 5817 5817 5818 5818 5818 5818 5818 5818 5818 5817 5816 5815 5814 5812 5810 5808 5806 5804 5802 5799 5796 5793 5790 5787 5783 5779 5775 5770 5766 5762 5757 5753 5748
5799 5801 5802 5803 5805 5806 5807 5808 5810 5811 5811 5812 5812 5813 5813 5813 5813 5813 5812 5812 5811 5809 5808 5806 5804 5802 5800 5798 5795 5792 5790 5786 5783 5779 5775 5771 5766 5762 5758 5753 5749 5744 5739
5795 5796 5797 5799 5800 5801 5802 5803 5804 5805 5806 5807 5807 5807 5807 5808 5808 5807 5807 5806 5805 5803 5801 5800 5798 5795 5793 5791 5788 5785 5782 5779 5775 5771 5767 5763 5758 5754 5749 5744 5739 5734 5729
5790 5791 5792 5794 5795 5795 5797 5798 5799 5800 5800 5801 5801 5802 5802 5802 5801 5801 5800 5799 5798 5797 5795 5793 5790 5788 5786 5783 5780 5777 5774 5771 5767 5763 5759 5754 5750 5745 5740 5736 5730 5725 5720
5785 5786 5787 5788 5789 5790 5791 5792 5793 5794 5794 5795 5795 5795 5796 5796 5795 5794 5793 5792 5791 5790 5788 5785 5783 5781 5778 5775 5772 5769 5766 5763 5759 5754 5750 5746 5741 5736 5731 5726 5721 5715 5710
5780 5781 5782 5783 5783 5784 5785 5786 5787 5788 5788 5788 5789 5789 5789 5789 5788 5787 5786 5785 5784 5782 5780 5778 5775 5773 5770 5767 5764 5761 5758 5754 5750 5746 5741 5737 5732 5727 5722 5716 5711 5705 5700
5774 5775 5776 5777 5777 5778 5779 5780 5780 5781 5781 5782 5782 5782 5781 5781 5780 5780 5778 5777 5776 5774 5772 5770 5767 5765 5762 5759 5756 5752 5749 5745 5741 5737 5732 5727 5722 5717 5712 5706 5701 5695 5689
5769 5770 5770 5771 5771 5772 5773 5773 5774 5774 5775 5775 5775 5775 5774 5774 5773 5772 5770 5769 5768 5766 5764 5761 5759 5756 5753 5750 5747 5743 5739 5736 5731 5727 5722 5717 5712 5707 5701 5696 5690 5684 5679
5763 5763 5764 5765 5765 5766 5766 5767 5767 5768 5768 5768 5768 5767 5767 5766 5765 5764 5763 5761 5759 5757 5755 5753 5750 5747 5744 5741 5737 5733 5730 5726 5721 5717 5712 5707 5702 5696 5691 5685 5679 5673 5667
5756 5757 5758 5758 5759 5759 5760 5760 5760 5760 5760 5760 5760 5759 5759 5758 5757 5756 5754 5753 5751 5749 5746 5744 5741 5738 5735 5731 5727 5723 5719 5715 5711 5706 5702 5697 5691 5686 5680 5674 5668 5662 5656
5750 5751 5751 5752 5752 5752 5752 5753 5753 5753 5753 5752 5752 5751 5751 5750 5749 5748 5746 5744 5742 5740 5737 5735 5732 5729 5725 5721 5717 5713 5709 5705 5700 5696 5691 5686 5681 5675 5669 5663 5657 5651 5645
5743 5744 5744 5745 5745 5745 5745 5745 5745 5745 5744 5744 5744 5743 5742 5742 5740 5739 5737 5735 5733 5730 5728 5725 5722 5719 5715 5711 5707 5703 5698 5694 5690 5685 5680 5675 5669 5664 5658 5652 5646 5640 5634
5736 5736 5737 5737 5737 5737 5737 5737 5737 5737 5736 5736 5735 5735 5734 5733 5731 5730 5728 5726 5723 5720 5718 5715 5712 5708 5705 5701 5696 5692 5688 5683 5678 5673 5668 5663 5658 5652 5647 5641 5635 5629 5622
5728 5729 5729 5729 5729 5729 5729 5729 5729 5729 5728 5727 5727 5726 5725 5723 5722 5720 5718 5716 5713 5710 5708 5705 5701 5698 5694 5690 5686 5681 5677 5672 5667 5662 5656 5651 5646 5640 5635 5629 5623 5617 5611